Location: Driftpile
(55.3500°N, 115.7667°W)
Time: 05:17:19
(UTC+00:00)

ISS - Pass Details

Date: 05 December 2021
Orbit: 413 x 423 km, 51.6° (Epoch: 20 January)

Event Time Altitude Azimuth Distance (km) Brightness Sun altitude
Rises 00:36:30 0° 272° (W) 2,385 1.4 -10.6°
Reaches altitude 10° 00:38:44 10° 262° (W) 1,516 0.4 -10.9°
Maximum altitude 00:41:50 33° 197° (SSW) 736 -2.1 -11.3°
Drops below altitude 10° 00:44:54 10° 131° (SE) 1,507 -1.2 -11.7°
Enters shadow 00:46:04 - 125° (SE) 1,950 -0.7 -11.8°
